Regional Weather Roundup
Issued by NWS

Home | Current Version | Previous Version | Graphics & Text | Print | Product List | Glossary On
Versions: 1 2 3 4 5 6 7 8 9 10 11 12 13 14 15 16 17 18 19 20 21 22 23 24 25 26 27 28 29 30 31 32 33 34 35 36 37 38 39 40 41 42 43 44 45 46 47 48 49 50
000
ASUS43 KMPX 221210
RWRMN
WEATHER ROUNDUP FOR MINNESOTA
NATIONAL WEATHER SERVICE TWIN CITIES/CHANHASSEN MN
700 AM CDT WED MAR 22 2017


NOTE: "FAIR" INDICATES FEW OR NO CLOUDS BELOW 12,000 FEET WITH NO
SIGNIFICANT WEATHER AND/OR OBSTRUCTIONS TO VISIBILITY. N/A MEANS
CURRENT SKY AND/OR WEATHER CONDITIONS ARE NOT AVAILABLE.

MNZ060>063-068>070-221300-
   Twin Cities Metro

CITY           SKY/WX    TMP DP  RH WIND       PRES   REMARKS
TWIN CITIES    CLOUDY    22   6  50 SE9       30.55R WCI  12
6HR MIN TEMP:  22; 6HR MAX TEMP:  25;

ST PAUL        CLOUDY    21   9  59 E6        30.56S WCI  13
CRYSTAL        CLOUDY    19   4  51 E3        30.54R
LAKEVILLE      CLOUDY    16  10  79 CALM      30.53S
EDEN PRAIRIE   PTCLDY    22   6  50 E5        30.53R WCI  16
6HR MIN TEMP:  21; 6HR MAX TEMP:  25;

SOUTH ST PAUL  CLOUDY    22   8  54 CALM      30.55S
LAKE ELMO      FAIR      19  10  68 CALM      30.55S
$$
MNZ001>005-007-008-013>017-022>024-027-028-221300-
   Northwest Minnesota

CITY           SKY/WX    TMP DP  RH WIND       PRES   REMARKS
BEMIDJI        CLOUDY    10   2  72 SE6       30.49R WCI   0
HALLOCK        CLOUDY    19  10  68 SE13      30.45F WCI   7
ROSEAU         PTCLDY    18   5  57 S12       30.48F WCI   5
WARROAD        PTCLDY    16   3  57 SE9       30.49S WCI   4
THIEF RVR FALL CLEAR     16   6  65 SE14      30.47F WCI   2
CROOKSTON      CLOUDY    18   9  68 SE13      30.47F WCI   4
FOSSTON        CLOUDY    12   1  62 SE9       30.47F WCI   0
DETROIT LAKES  CLEAR     18   7  62 SE12      30.46F WCI   5
MOORHEAD       CLOUDY    19   7  58 SE10      30.47F WCI   8
PARK RAPIDS    CLOUDY    16   0  49 SE9       30.48S WCI   4
MAHNOMEN       FAIR      16   4  59 SE8       30.46F WCI   5
$$
MNZ006-009>011-018-025>026-221300-
   North Central Minnesota

CITY           SKY/WX    TMP DP  RH WIND       PRES   REMARKS
BAUDETTE       CLOUDY    11   1  64 SE8       30.49F WCI  -1
FLAG ISLAND    CLOUDY    12   1  62 SE6       30.48F WCI   3
INTL FALLS     PTCLDY     6  -1  73 SE3       30.53S
6HR MIN TEMP:   5; 6HR MAX TEMP:  12;

WASKISH        CLOUDY    10   5  79 CALM      30.50S
BIG FORK       CLOUDY     5   1  85 CALM      30.51F
LONGVILLE      CLOUDY     9   7  92 CALM      30.51F
GRAND RAPIDS   CLOUDY    10   0  63 SE5       30.54S WCI   2
CRANE LAKE     CLOUDY     0  -2  92 CALM      30.57F
ORR            CLOUDY     7  -2  66 CALM      30.51S
COOK           CLOUDY     1   0  92 E3        30.54S
WALKER         FAIR       9   4  78 CALM      30.50S
$$
MNZ012-019>021-037-221300-
   Northeast Minnesota

CITY           SKY/WX    TMP DP  RH WIND       PRES   REMARKS
DULUTH         CLOUDY    11   1  64 NE6       30.53R WCI   1
6HR MIN TEMP:  11; 6HR MAX TEMP:  17;

ELY            CLOUDY     0  -2  92 CALM      30.55R
HIBBING        CLOUDY     6   0  76 E5        30.53S WCI  -3
EVELETH        CLOUDY     5   0  79 CALM      30.56R
DULUTH HARBOR  CLOUDY    21   9  58 CALM      30.60S
TWO HARBORS    CLOUDY    14   1  57 N6        30.55R WCI   5
SILVER BAY     CLEAR      5   1  85 CALM      30.56R
GRAND MARAIS     N/A     12  -2  53 N5        30.62R WCI   4
G MARAIS ARPRT CLEAR     -6 -11  77 N5        30.51S WCI -17
$$
MNZ029>031-032-039>041-046>048-054>057-064-221300-
   West Central Minnesota

CITY           SKY/WX    TMP DP  RH WIND       PRES   REMARKS
FERGUS FALLS   CLOUDY    19   5  53 SE13      30.51F WCI   7
WHEATON        CLOUDY    19  12  73 SE9       30.48S WCI   9
MORRIS         CLOUDY    19  10  68 SE13      30.45F WCI   7
ALEXANDRIA     CLOUDY    17   6  62 E9        30.47F WCI   6
ELBOW LAKE     FAIR      18   7  62 SE9       30.46F WCI   6
WADENA         CLOUDY    12   5  73 E6        30.48F WCI   3
GLENWOOD       CLOUDY    16   9  73 E10       30.48F WCI   3
APPLETON       CLOUDY    21  10  63 SE12G18   30.46F WCI   9
BENSON         CLOUDY    21   7  53 SE9       30.48F WCI  11
ORTONVILLE     CLOUDY    21  12  68 SE10      30.45S WCI  10
MADISON        CLOUDY    25  16  68 SE14      30.46S WCI  13
WILLMAR        FAIR      19  10  68 E8        30.50F WCI   9
$$
MNZ033>034-036-042>043-049>051-058-059-221300-
   Central Minnesota

CITY           SKY/WX    TMP DP  RH WIND       PRES   REMARKS
ST CLOUD       CLOUDY    18   5  57 E3        30.53R
6HR MIN TEMP:  17; 6HR MAX TEMP:  20;

SAUK CENTRE    FAIR      15   8  72 E5        30.51R WCI   8
PAYNESVILLE      N/A     18   8  62 E5        30.51S WCI  11
AITKIN         CLOUDY     9   1  72 CALM      30.52S
PINE RIVER     CLOUDY    12   5  73 CALM      30.53F
BRAINERD       CLOUDY     8   5  87 CALM      30.52S
STAPLES        CLOUDY    10   5  79 CALM      30.50S
LONG PRAIRIE   FAIR      18   5  57 E6        30.51S WCI   9
LITTLE FALLS   CLOUDY    18   5  57 CALM      30.53
LITCHFIELD     CLOUDY    19  10  68 E6        30.52F WCI  11
BUFFALO        CLOUDY    18   8  63 E5        30.54S WCI  11
MAPLE LAKE     CLOUDY    20  11  66 E3        30.54S
HUTCHINSON     CLOUDY    19  11  70 E5        30.52F WCI  13
$$
MNZ037-044-045-052-053-221300-
   East Central Minnesota

CITY           SKY/WX    TMP DP  RH WIND       PRES   REMARKS
PRINCETON      CLOUDY    18   5  57 CALM      30.54R
MORA           PTCLDY    14   7  73 CALM      30.56S
CAMBRIDGE      PTCLDY    19   7  58 E3        30.53S
RUSH CITY      PTCLDY    15   7  70 NE3       30.56R
MOOSE LAKE     CLOUDY    10   5  79 CALM      30.53S
HINCKLEY       FAIR      14   7  73 CALM      30.56R
CLOQUET        CLOUDY    12   0  57 E3        30.53S
MCGREGOR       PTCLDY    14   5  67 CALM      30.55R
$$
MNZ071>073-080-081-089-090-097-098-221300-
   Southwest Minnesota

CITY           SKY/WX    TMP DP  RH WIND       PRES   REMARKS
MONTEVIDEO     CLOUDY    19  12  73 SE13      30.48F WCI   7
GRANITE FALLS  CLOUDY    22  13  69 E7        30.49F WCI  13
CANBY          CLOUDY    24  16  72 E7        30.45F WCI  16
MARSHALL       CLOUDY    21  14  74 SE8       30.46F WCI  11
REDWOOD FALLS  CLOUDY    21   8  57 E7        30.48F WCI  12
OLIVIA         CLOUDY    21  10  63 E9        30.48S WCI  11
PIPESTONE      CLOUDY    25  10  54 SE12      30.40F WCI  14
WINDOM         CLOUDY    21  14  73 E8        30.46S WCI  12
WORTHINGTON    CLOUDY    23  16  74 E13       30.43F WCI  11
JACKSON        CLOUDY    23  18  80 E7        30.46S WCI  15
TRACY          CLOUDY    24  16  71 SE8       30.45F WCI  14
SLAYTON        CLOUDY    23  15  70 E13       30.43F WCI  11
$$
MNZ065>067-074>077-082>085-091>093-221300-
   South Central Minnesota

CITY           SKY/WX    TMP DP  RH WIND       PRES   REMARKS
MANKATO        CLOUDY    22  13  68 E9        30.52S WCI  12
NEW ULM        CLOUDY    19  10  68 E6        30.50S WCI  11
ST JAMES       CLOUDY    21  16  79 CALM      30.50F
FAIRMONT       CLEAR     21  16  81 E9        30.48F WCI  11
GLENCOE        CLOUDY    17  13  85 CALM      30.52S
FARIBAULT      PTCLDY    19  12  73 E3        30.53R
OWATONNA       CLEAR     19  12  73 E5        30.51S WCI  13
WASECA         CLOUDY    19  14  79 E5        30.52F WCI  13
ALBERT LEA     CLOUDY    21  12  68 SE6       30.50S WCI  14
$$
MNZ078>079-086>088-094>096-221300-
   Southeast Minnesota

CITY           SKY/WX    TMP DP  RH WIND       PRES   REMARKS
ROCHESTER      CLEAR     19   9  65 E9        30.51R WCI   8
6HR MIN TEMP:  18; 6HR MAX TEMP:  24;

RED WING       CLEAR     21   7  53 E5        30.54S WCI  15
STANTON        CLOUDY    21  12  67 CALM      30.52S
DODGE CENTER   CLEAR     19  12  73 E7        30.51R WCI  10
WINONA         CLEAR     23   9  54 E7        30.56F WCI  15
AUSTIN         CLOUDY    21  12  68 E5        30.51R WCI  15
PRESTON        CLEAR     20   7  57 E7        30.52R WCI  11
$$
ABBREVIATIONS USED IN REMARKS
   TC - TEMPERATURES IN CELSIUS
  WCI - WIND CHILL INDEX
   HX - HEAT INDEX
  VSB - VISIBILITY
$$



USA.gov is the U.S. government's official web portal to all federal, state and local government web resources and services.